Current weather by "City, St" or "zip code"  
 
Advertise Here

Current Conditions: Indiana / Stewart Field, PA

Mostly Cloudy


36.0 F

Last Updated on Nov 23 2020, 9:55 pm EST
Humidity: 75%
Wind Speed: W 5.8 mph
Barometer 30.29 in
Dewpoint: 28.4 F
Visibility: 10.00 mi
Precip: --
Heat Index: NA
Wind Chill: 31 F
Current conditions at:

Indiana / Stewart Field, PA (KIDI)

Lat: 40.63333 Lon: 79.1

Local Radar Image active severe weather and emergency alerts image image weather storm and storm spotter reports image weather observation monitoring service image
Local
Radar
Active
Alerts
Storm Reports Obs
Monitoring

Sign-up For Email & Text Message Weather Alert Notification Services


Advertise Here

Observation History for Indiana / Stewart Field, PA


Time Wind
(mph)
Vis
(mi)
Weather Precip (in) Temperature (F) Relative
Humidity
Wind
Chill
(F)
Heat
Index
(F)
Pressure
Air Dwpt altimeter
(in)
sea level
(mb)
Rmks
9:55 pm EST W 5.8 10.00 Mostly Cloudy -- 36.0 28.4 75% 31 NA 30.29 M
8:55 pm EST NW 6.9 10.00 Overcast -- 37.0 28.4 70% 32 NA 30.30 M
7:55 pm EST NW 6.9 10.00 Overcast -- 37.0 28.4 70% 32 NA 30.29 M
6:55 pm EST NW 5.8 G 15.0 10.00 Overcast -- 39.0 30.2 70% 35 NA 30.28 M
5:35 pm EST NW 9.2 10.00 Overcast -- 39.0 30.2 70% 33 NA 30.25 M
3:55 pm EST W 8.1 10.00 Overcast -- 39.0 32.0 75% 33 NA 30.21 M
2:55 pm EST NW 9.2 G 16.1 10.00 Overcast -- 39.0 32.0 75% 33 NA 30.21 M
1:55 pm EST W 10.4 G 23.0 10.00 Overcast -- 39.0 33.8 81% 32 NA 30.20 M
12:55 pm EST NW 9.2 G 17.3 10.00 Overcast -- 37.0 33.8 87% 30 NA 30.21 M
11:55 am EST W 11.5 10.00 Overcast -- 37.0 33.8 87% 29 NA 30.22 M
10:55 am EST W 10.4 10.00 Overcast -- 37.0 33.8 87% 30 NA 30.23 M
9:55 am EST NW 6.9 10.00 Mostly Cloudy -- 37.0 35.6 93% 32 NA 30.21 M
8:55 am EST W 9.2 10.00 Overcast -- 36.0 35.6 100% 29 NA 30.20 M
7:55 am EST W 6.9 10.00 Overcast -- 36.0 33.8 93% 30 NA 30.19 M
6:55 am EST NW 8.1 10.00 Overcast -- 36.0 33.8 93% 30 NA 30.17 M
5:55 am EST W 9.2 10.00 Overcast -- 36.0 33.8 93% 29 NA 30.15 M
4:55 am EST NW 10.4 G 17.3 10.00 Overcast -- 36.0 35.6 100% 28 NA 30.14 M
3:55 am EST NW 10.4 G 23.0 7.00 Overcast -- 39.0 37.4 93% 32 NA 30.12 M
2:55 am EST NW 15.0 G 24.2 10.00 Overcast -- 41.0 39.2 93% 33 NA 30.09 M
1:55 am EST NW 12.7 G 21.9 10.00 Overcast -- 43.0 41.0 93% 36 NA 30.05 M
12:55 am EST W 10.4 G 17.3 10.00 Overcast -- 45.0 42.8 93% 40 NA 30.00 M
11:55 pm EST NW 9.2 G 16.1 3.00 Fog/Mist -- 48.0 48.2 100% 44 NA 29.97 M
10:55 pm EST SW 9.2 5.00 Fog/Mist -- 50.0 50.0 100% 46 NA 29.95 M

Regional Weather Observation


Butler, Butler County Airport/K W Scholter Field, PA (KBTP)

Overcast
38.0 F

Latrobe / Westmoreland, PA (KLBE)

Overcast
37.0 F

Pittsburgh - Allegheny County Airport, PA (KAGC)

Overcast
37.0 F

Du Bois - Jefferson County Airport, PA (KDUJ)

Overcast
35.0 F

Johnstown - Cambria County Airport, PA (KJST)

Overcast
34.0 F

Franklin, Venango Regional Airport, PA (KFKL)

Overcast
35.0 F